Tracking 28790 objects as of 19-Apr-2024
HD Live streaming from Space Station
objects crossing your sky now

COSMOS 886 DEB

Track COSMOS 886 DEB now!
10-day predictions


NORAD ID: 9963
Int'l Code: 1976-126BD
Perigee: 549.7 km
Apogee: 1,751.2 km
Inclination: 65.8 °
Period: 108.2 minutes
Semi major axis: 7521 km
RCS: 0.135 m2 (medium)
Launch date: December 27, 1976
Source: Commonwealth of Independent States (former USSR) (CIS)
Launch site: TYURATAM MISSILE AND SPACE COMPLEX (TTMTR)

Note: This is SATELLITE DEBRIS
Your satellite tracking list
Your tracking list is empty




NASA's NSSDC Master Catalog

Two Line Element Set (TLE):
1 09963U 76126BD  24109.49304104  .00004877  00000-0  16461-2 0  9996
2 09963  65.7967 212.2549 0798703  73.6707 295.0589 13.30912878248530
Source of the keplerian elements: AFSPC